User: anonymous   Login
Location: Unspecified
(0.0000°N, 0.0000°E)
Time: 08:08:31
(UTC+01:00)
Language:

Cosmos 1703 - Orbit

View from above orbital plane
View from above orbital plane
View from above satellite
View from above satellite

Ground track
Ground track

The orbit data is extracted from the following two-line orbital elements,

1 16262U 85108A   15031.15652312  .00005175  00000-0  33968-3 0  6193
2 16262 082.4885 020.6503 0015280 055.6113 304.6558 15.07355277587965
Epoch (UTC): 31 January 2015 03:45:23
Eccentricity: 0.0015280
inclination: 82.4885°
perigee height: 534 km
apogee height: 555 km
right ascension of ascending node: 20.6503°
argument of perigee: 55.6113°
revolutions per day: 15.07355277
mean anomaly at epoch: 304.6558°
orbit number at epoch: 58796

The dashed part of the orbit path shows where the satellite is in the earth's shadow,  

DLR